"Pseudo-MPEC" for P222GIT

Created 2024 Dec 3 3:31:24 UT using Find_Orb

Click here for an explanation of pseudo-MPECs

 
 Astrometry: 
     P222GIT* C2024 11 29.37045905 08 36.246+15 27 29.09   ~BTCl 22.18wXNEOCPF52
     P222GIT  C2024 11 29.38122005 08 35.339+15 27 30.52   ~BTCl 22.30wXNEOCPF52
     P222GIT  C2024 11 29.39197905 08 34.456+15 27 31.76   ~BTCl 22.53wXNEOCPF52
     P222GIT  C2024 11 29.40279705 08 33.557+15 27 33.01   ~BTCl 22.83wXNEOCPF52
     P222GIT  C2024 11 29.55029305 08 21.261+15 27 49.12   ~C302 22.60GVNEOCPF52
     P222GIT  C2024 11 29.55092405 08 21.228+15 27 49.42   ~C302 23.15GVNEOCPF52
     P222GIT KC2024 11 30.26102805 07 25.59 +15 29 07.2    ~BU72 22.6 GVNEOCPH21
     P222GIT KC2024 11 30.26961405 07 24.90 +15 29 08.4    ~BU72 23.0 GVNEOCPH21
     P222GIT KC2024 12 02.22280805 04 50.509+15 33 06.01   ~C26H 22.13GVNEOCPV06
     P222GIT KC2024 12 02.22928205 04 49.998+15 33 06.95   ~C26H 21.80GVNEOCPV06
     P222GIT KC2024 12 02.23574105 04 49.454+15 33 07.56   ~C26H 22.26GVNEOCPV06
     P222GIT KC2024 12 02.24219805 04 48.911+15 33 08.35   ~C26H 22.21GVNEOCPV06
     P222GIT  C2024 12 02.47873905 04 29.685+15 33 40.86   ~C302 22.87GVNEOCPF51
     P222GIT  C2024 12 02.49066905 04 28.711+15 33 42.50   ~C302 22.42GVNEOCPF51
     P222GIT  C2024 12 02.50253405 04 27.718+15 33 43.88   ~C302 22.12GVNEOCPF51
     P222GIT  C2024 12 02.51437905 04 26.713+15 33 45.20   ~C302 21.91GVNEOCPF51

Station data:
(F51) Pan-STARRS 1, Haleakala  (N20.707234 W156.255910)  US/Hawaii.
   Observers J. Bulger, T. Lowe, A. Schultz, M. Willman. Measurers K.
   Chambers, S. Chastel, T. de Boer, L. Denneau, J. Fairlamb, H. Flewelling,
   M. Huber, C.-C. Lin, E. Magnier, Y. Ramanjooloo, R. Wainscoat, R. Weryk.
   1.8-m Ritchey-Chrétien + CCD.
(F52) Pan-STARRS 2, Haleakala  (N20.707382 W156.255910)  US/Hawaii.
   Observers J. Bulger, T. Dukes, T. Lowe, A. Schultz, M. Willman. Measurers
   K. Chambers, S. Chastel, T. de Boer, L. Denneau, J. Fairlamb, H.
   Flewelling, M. Huber, C.-C. Lin, E. Magnier, Y. Ramanjooloo, R. Wainscoat,
   R. Weryk. 1.8-m Ritchey-Chrétien + CCD.
(H21) Astronomical Research Observatory, Westfield  (N39.483054 W87.968270)
   US/Illinois.  Observer R. Holmes. Measurers S. Foglia, L. Buzzi, T.
   Linder, R. Holmes. 0.76-m f/3.0 astrograph + CCD0.81-m f/4.0 astrograph +
   CCD0.61-m f/4.5 astrograph + CCD0.40-m f/5.32 astrograph + CCD.
(V06) Catalina Sky Survey-Kuiper  (N32.416871 W110.732550)  US/Arizona.
   Observers T. A. Pruyne, B. M. Africano, E. J. Christensen, G. A. Farneth,
   D. C. Fuls, A. R. Gibbs, A. D. Grauer, H. Gröller, J. A. Johnson, R. A.
   Kowalski, S. M. Larson, G. J. Leonard, D. Rankin, R. L. Seaman, F. C.
   Shelly, K. W. Wierzchoś. 1.55-m reflector + CCD.

Orbital elements:  P222GIT
   Perihelion 2024 Jul 20.91862 +/- 1.82 TT = 22:02:48 (JD 2460512.41862)
Epoch 2024 Dec  2.0 TT = JDT 2460646.5   Earth MOID: 0.4114   Ma: 0.0489
M  43.42661263 +/- 0.6              (J2000 ecliptic)             AutoNEOCP
n   0.32388250 +/- 0.00379          Peri.  235.89355 +/- 0.38
a   2.09996016 +/- 0.0164           Node   119.13434 +/- 0.48
e   0.3284657 +/- 0.00741           Incl.    4.42117 +/- 0.06
P   3.04310                H 21.49  G  0.15   U  9.0
q 1.41019515 +/- 0.007    Q 2.78972517 +/- 0.0366
From 16 observations 2024 Nov. 29-Dec. 2; mean residual 0".13
Residuals in arcseconds: 
241129 F52  .11+  .05-    241130 H21  .06-  .23-    241202 F51  .21-  .08-    
241129 F52  .12-  .08+    241130 H21  .26+  .03-    241202 F51  .16+  .10+    
241129 F52  .02+  .03+    241202 V06  .29-  .15+    241202 F51  .16+  .03+    
241129 F52  .02+  .00     241202 V06  .07+  .22+    241202 F51  .05-  .07-    
241129 F52  .17-  .12-    241202 V06  .06-  .04-    
241129 F52  .11+  .11+    241202 V06  .17-  .12-    

Ephemerides (geocentric):
Date (UTC) HH   RA             Dec           delta  r     elong  mag " sig PA
---- --------  ------------   ------------  ------ ------ -----  --- --------
2024 12 03 04  05 03 35.318   +15 35 10.67  .77575 1.7563 171.2 22.6 .114  19
2024 12 03 05  05 03 32.017   +15 35 16.12  .77588 1.7565 171.2 22.6 .120  18
2024 12 03 06  05 03 28.717   +15 35 21.58  .77602 1.7567 171.2 22.6 .126  18
2024 12 03 07  05 03 25.417   +15 35 27.04  .77616 1.7569 171.3 22.6 .132  17
2024 12 03 08  05 03 22.117   +15 35 32.51  .77629 1.7570 171.3 22.6 .138  17
2024 12 03 09  05 03 18.818   +15 35 37.99  .77643 1.7572 171.3 22.6 .145  17
2024 12 03 10  05 03 15.519   +15 35 43.48  .77657 1.7574 171.4 22.6 .151  16
2024 12 03 11  05 03 12.221   +15 35 48.98  .77670 1.7575 171.4 22.6 .158  16
2024 12 03 12  05 03 08.923   +15 35 54.48  .77684 1.7577 171.4 22.6 .165  16
2024 12 03 13  05 03 05.625   +15 36 00.00  .77698 1.7579 171.5 22.6 .172  16
2024 12 03 14  05 03 02.327   +15 36 05.52  .77712 1.7580 171.5 22.6 .179  15
2024 12 03 15  05 02 59.030   +15 36 11.05  .77726 1.7582 171.5 22.6 .186  15
2024 12 03 16  05 02 55.734   +15 36 16.59  .77740 1.7584 171.6 22.6 .193  15
2024 12 03 17  05 02 52.438   +15 36 22.14  .77754 1.7585 171.6 22.6 .201  15
2024 12 03 18  05 02 49.142   +15 36 27.70  .77768 1.7587 171.6 22.6 .208  15
2024 12 03 19  05 02 45.847   +15 36 33.26  .77782 1.7589 171.6 22.6 .216  15
2024 12 03 20  05 02 42.552   +15 36 38.84  .77796 1.7590 171.7 22.6 .224  15
2024 12 03 21  05 02 39.258   +15 36 44.42  .77810 1.7592 171.7 22.6 .232  15
2024 12 03 22  05 02 35.964   +15 36 50.01  .77824 1.7594 171.7 22.6 .240  15
2024 12 03 23  05 02 32.670   +15 36 55.61  .77839 1.7595 171.8 22.6 .248  15
2024 12 04 00  05 02 29.378   +15 37 01.22  .77853 1.7597 171.8 22.6 .256  15
2024 12 04 01  05 02 26.085   +15 37 06.84  .77867 1.7599 171.8 22.6 .265  15
2024 12 04 02  05 02 22.794   +15 37 12.46  .77882 1.7601 171.9 22.6 .273  15
2024 12 04 03  05 02 19.502   +15 37 18.09  .77896 1.7602 171.9 22.6 .282  15
2024 12 04 04  05 02 16.212   +15 37 23.73  .77910 1.7604 171.9 22.6 .291  15
2024 12 04 05  05 02 12.922   +15 37 29.38  .77925 1.7606 171.9 22.6 .300  15
2024 12 04 06  05 02 09.632   +15 37 35.04  .77939 1.7607 172.0 22.6 .309  15
2024 12 04 07  05 02 06.343   +15 37 40.71  .77954 1.7609 172.0 22.6 .318  15
2024 12 04 08  05 02 03.055   +15 37 46.39  .77969 1.7611 172.0 22.6 .327  15
2024 12 04 09  05 01 59.767   +15 37 52.07  .77983 1.7612 172.1 22.6 .337  15
2024 12 04 10  05 01 56.480   +15 37 57.76  .77998 1.7614 172.1 22.6 .346  15
2024 12 04 11  05 01 53.193   +15 38 03.46  .78013 1.7616 172.1 22.6 .356  15
2024 12 04 12  05 01 49.908   +15 38 09.17  .78027 1.7617 172.1 22.6 .366  15
2024 12 04 13  05 01 46.622   +15 38 14.89  .78042 1.7619 172.2 22.6 .376  15
2024 12 04 14  05 01 43.338   +15 38 20.61  .78057 1.7621 172.2 22.6 .386  15
2024 12 04 15  05 01 40.054   +15 38 26.35  .78072 1.7622 172.2 22.6 .396  16
2024 12 04 16  05 01 36.771   +15 38 32.09  .78087 1.7624 172.2 22.6 .406  16
2024 12 04 17  05 01 33.488   +15 38 37.84  .78102 1.7626 172.3 22.6 .417  16
2024 12 04 18  05 01 30.206   +15 38 43.60  .78117 1.7628 172.3 22.6 .427  16
2024 12 04 19  05 01 26.925   +15 38 49.37  .78132 1.7629 172.3 22.6 .438  16
2024 12 04 20  05 01 23.645   +15 38 55.15  .78147 1.7631 172.3 22.6 .449  16
2024 12 04 21  05 01 20.365   +15 39 00.93  .78162 1.7633 172.4 22.6 .460  16
2024 12 04 22  05 01 17.086   +15 39 06.72  .78177 1.7634 172.4 22.6 .471  16
2024 12 04 23  05 01 13.808   +15 39 12.52  .78192 1.7636 172.4 22.6 .482  16
2024 12 05 00  05 01 10.531   +15 39 18.33  .78208 1.7638 172.4 22.6 .494  17
2024 12 05 01  05 01 07.254   +15 39 24.15  .78223 1.7639 172.5 22.6 .505  17
2024 12 05 02  05 01 03.979   +15 39 29.98  .78238 1.7641 172.5 22.6 .517  17
2024 12 05 03  05 01 00.704   +15 39 35.81  .78254 1.7643 172.5 22.6 .529  17